Hermiston, OR

5:26 AM PDT on October 17, 2017 (GMT -0700)
Hermiston Municipal

Weather History for KHRI - June, 2013

Change the Weather History Date:

Saturday, June 29, 2013

  Actual Average Record
Temperature  
Mean Temperature 82 °F 70 °F  
Max Temperature 96 °F 86 °F 105 °F (1948)
Min Temperature 68 °F 54 °F 43 °F (1924)
Cooling Degree Days 17    
Growing Degree Days 32 (Base 50)    
Moisture  
Dew Point 60 °F    
Average Humidity 50    
Maximum Humidity 81    
Minimum Humidity 23    
Precipitation  
Precipitation 0.00 in 0.01 in 0.61 in (1982)
Month to date precipitation 0.68  
Year to date precipitation 6.01  
Sea Level Pressure  
Sea Level Pressure 29.94 in    
Wind  
Wind Speed 5 mph (NNW)    
Max Wind Speed 9 mph    
Max Gust Speed -    
Visibility 10 miles    
Events      
T = Trace of Precipitation, MM = Missing Value Source: NWS Daily Summary

Daily Weather History Graph

Daily Weather History Graph

Search for Another Location

Airport or City:

Trip Planner

Search our weather history database for the weather conditions in past years. The results will help you decide how hot, cold, wet, or windy it might be!

Date:

Astronomy

Jun. 29, 2013 Rise Set
Actual Time 5:09 AM PDT 8:51 PM PDT
Civil Twilight 4:31 AM PDT 9:29 PM PDT
Nautical Twilight 3:40 AM PDT 10:20 PM PDT
Astronomical Twilight 2:30 AM PDT 11:29 PM PDT
Moon No Moon Rise 12:51 PM PDT (6/29)
Length of Visible Light 16h 57m
Length of Day
15h 41m
Waning Gibbous, 54% of the Moon is Illuminated
Jun 29
Waning Gibbous
Jun 29
Last Quarter
Jul 8
New
Jul 15
First Quarter
Jul 22
Full

Hourly Weather History & Observations

Time (PDT) Temp. Heat Index Dew Point Humidity Pressure Visibility Wind Dir Wind Speed Gust Speed Precip Events Conditions
12:53 AM 73.0 °F - 63.0 °F 71% 29.96 in 10.0 mi WSW 4.6 mph - N/A   Partly Cloudy
1:53 AM 75.0 °F - 62.1 °F 64% 29.95 in 10.0 mi WSW 6.9 mph - N/A   Clear
2:53 AM 71.1 °F - 62.1 °F 73% 29.95 in 10.0 mi South 5.8 mph - N/A   Clear
3:53 AM 72.0 °F - 61.0 °F 68% 29.95 in 10.0 mi Calm Calm - N/A   Clear
4:53 AM 69.1 °F - 62.1 °F 78% 29.96 in 10.0 mi Calm Calm - N/A   Clear
5:53 AM 68.0 °F - 62.1 °F 81% 29.94 in 10.0 mi Calm Calm - N/A   Clear
6:53 AM 73.9 °F - 62.1 °F 66% 29.95 in 10.0 mi Calm Calm - N/A   Clear
7:53 AM 80.1 °F 81.5 °F 63.0 °F 56% 29.98 in 10.0 mi SW 6.9 mph - 0.00 in   Partly Cloudy
8:53 AM 81.0 °F 82.2 °F 63.0 °F 54% 29.98 in 10.0 mi West 5.8 mph - N/A   Clear
9:53 AM 82.9 °F 83.7 °F 62.1 °F 49% 29.99 in 10.0 mi Variable 3.5 mph - N/A   Clear
10:53 AM 87.1 °F 87.5 °F 62.1 °F 43% 29.97 in 10.0 mi Variable 4.6 mph - N/A   Clear
11:53 AM 90.0 °F 90.3 °F 62.1 °F 39% 29.96 in 10.0 mi North 8.1 mph - N/A   Clear
12:53 PM 89.1 °F 89.0 °F 61.0 °F 39% 29.95 in 10.0 mi NW 8.1 mph - N/A   Clear
1:53 PM 91.0 °F 90.9 °F 61.0 °F 36% 29.94 in 10.0 mi NNW 9.2 mph - N/A   Clear
2:53 PM 93.9 °F 93.6 °F 60.1 °F 32% 29.93 in 10.0 mi NNE 6.9 mph - N/A   Clear
3:53 PM 95.0 °F 93.7 °F 57.0 °F 28% 29.91 in 10.0 mi NE 6.9 mph - N/A   Clear
4:53 PM 93.9 °F 92.6 °F 57.0 °F 29% 29.90 in 10.0 mi East 6.9 mph - N/A   Clear
5:53 PM 96.1 °F 93.5 °F 53.1 °F 23% 29.90 in 10.0 mi NNE 6.9 mph - N/A   Clear
6:53 PM 93.9 °F 91.4 °F 53.1 °F 25% 29.88 in 10.0 mi North 5.8 mph - N/A   Clear
7:53 PM 91.9 °F 90.0 °F 55.0 °F 29% 29.88 in 10.0 mi North 4.6 mph - N/A   Clear
8:53 PM 84.0 °F 83.8 °F 59.0 °F 43% 29.89 in 10.0 mi NNE 6.9 mph - N/A   Clear
9:53 PM 78.1 °F - 60.1 °F 54% 29.92 in 10.0 mi NE 8.1 mph - N/A   Clear
10:53 PM 79.0 °F - 60.1 °F 52% 29.93 in 10.0 mi NW 4.6 mph - N/A   Clear
11:53 PM 72.0 °F - 60.1 °F 66% 29.95 in 10.0 mi West 4.6 mph - N/A   Clear